CZ-6A DEB, 61474

Orbit data source: Space-Track

CZ-6A DEB, 61474 is space debris in LEO originally from a launch on Tue, 06 Aug 2024 UTC launched from the Taiyaun Space Center, China (TSC). Debris objects in space refer to the collection of defunct objects orbiting the Earth. Examples of debris include non-operational satellites, rocket bodies, and fragments generated from explosions, collisions, or faulty payload assembly.

Loading next visibility...
Identifier
61474, 2024-140AAG
Orbit
LEO
Country
Flag of CNCN / PRC
Related business
Manufacturer
SAST
Mission
Spacecraft
Bus & Motor
Unknown
Mass
Unknown
Launch date (UTC)
2024-08-06 (1 year ago)
Launch vehicle
Unknown
Launch site
Taiyaun Space Center, China (TSC)
Object type
Payload
Rocket body
Debris
Shape & HBR
Unknown
Radar Cross Section
Small (<0.1 m²)

Expand to show TLE details & history
Last TLE update: 18 hours ago

TLE from 18 hours ago
0 CZ-6A DEB
1 61474U 24140AAG 25261.07464772  .00002507  00000-0  61644-3 0  9994
2 61474  88.8180 294.4715 0126194 171.5811 188.7554 14.47235384 54723
Epoch: 2025-09-18T01:47Z
TLE epoch observation values (Epoch: 2025-09-18T01:47:29.563Z)
Latitude
-0.00003°
Longitude
-89.64314°
Altitude
826.543 km
Speed
7.393 km/s
True Right ascension
19h 37m 53s
True Declination
0° 00' 00"
Sunlit
Object was in full shadow at epoch
Visualization orbit readout
Latitude
Unknown
Longitude
Unknown
Altitude
Unknown
Speed
Unknown
Apparent Right ascension
Unknown
Apparent Declination
Unknown
Sunlit
N/A
Visualization observer readout
Local Sidereal Time
13:02:42
Azimuth
Unknown
Elevation
Unknown
Doppler factor
Unknown
Orbital elements
Apogee altitude
821.326 km
Perigee altitude
641.884 km
Semi-major axis
7,109.742 km
Eccentricity
0.01262
Inclination
88.818°
RAAN
294.4715°
Arg. of periapsis
171.5811°
True anomaly
188.53866°
Mean anomaly
188.7554°
Eccentric anomaly
188.6467°
Mean motion
3.62045 °/min
Orbital period
99.44 mins
BSTAR
0.00061644
Loading maneuver chart data...
Computing Atmospheric mass density...
Loading historical data...
Loading historical data...
Loading historical data...
Loading historical data...
Loading historical data...
Loading historical data...
Loading historical data...

Documentation

Showing up to 5 results
|